Location: Moy Burn
(57.3833°N, 4.0667°W)
Time: 10:06:33
(UTC+00:00)

Cosmos 1184 Rocket - Pass Details

Date: 08 August 2020
Orbit: 406 x 423 km, 81.2° (Epoch: 18 September)

Event Time Altitude Azimuth Distance (km) Brightness Sun altitude
Exits shadow 21:53:38 - 193° (SSW) 1,766 5.5 -10.6°
Reaches altitude 10° 21:54:13 10° 193° (SSW) 1,517 5.2 -10.7°
Maximum altitude 21:57:32 88° 111° (ESE) 434 2.7 -10.9°
Drops below altitude 10° 22:00:52 10° 15° (NNE) 1,531 6.2 -11.2°
Sets 22:02:55 0° 16° (NNE) 2,401 7.2 -11.4°
